Location: Crescent
(42.8242°N, 73.7329°W)
Time: 02:45:52
(UTC+00:00)

Transit 4A - Pass Details

Date: 22 February 2026
Orbit: 863 x 978 km, 66.8° (Epoch: 13 March)

Event Time Altitude Azimuth Distance (km) Brightness Sun altitude
Rises 07:52:43 0° 215° (SW) 3,446 - -41.6°
Reaches altitude 10° 07:55:10 10° 218° (SW) 2,521 - -41.2°
Maximum altitude 08:01:00 72° 303° (WNW) 936 - -40.3°
Exits shadow 08:04:56 23° 24° (NNE) 1,850 9.8 -39.6°
Drops below altitude 10° 08:07:02 10° 28° (NNE) 2,606 10.7 -39.3°
Sets 08:09:36 0° 30° (NNE) 3,569 11.6 -38.9°
